Home > Weather > Teseney > Past weeks

Flag for Eritrea Weather for the Past 2 Weeks in Teseney, Eritrea

Now
72 °F

Clear.


Feels Like: 73 °F
Forecast: 63 / 95 °F
Wind: 16 mph from North

Location: Khartoum Airport

Current Time: Feb 10, 2016 at 2:04:44 AM

Latest Report: Feb 10, 2016 at 1:00 AM


Visibility: 10 mi

Pressure: 29.98 "Hg (27.99 "Hg at 593m altitude)

Humidity: 14%

Dew point: 19 °F

Location of TeseneyLocation

Historic Weather in Teseney — Graph

°F

Teseney Temperature Yesterday

Maximum temperature yesterday: 86 °F (at 3:00 PM)
Minimum temperature yesterday: 59 °F (at 7:00 AM)
Average temperature yesterday: 73 °F

High & Low Weather Summary for the Past Weeks

 TemperatureHumidityPressure
High90 °F (Feb 4, 4:00 PM)44% (Jan 27, 7:00 AM)30.27 "Hg (Jan 27, 7:00 AM)
Low52 °F (Jan 27, 7:00 AM)8% (Feb 5, 4:00 PM)29.86 "Hg (Feb 4, 4:00 PM)
Average70 °F22%30.04 "Hg
* Reported Midnight between Jan 25 and Jan 26 — Midnight between Feb 9 and Feb 10, Teseney, Weather by CustomWeather, © 2016

Note: Actual official high and low records may vary slightly from our data, if they occured in-between our weather recording intervals... More about our weather records

Advertising

Teseney Weather History for the Previous 24 Hours

 ConditionsComfort  
Time TempWeatherWind HumidityBarometerVisibility
12:00 AM
Wed, Feb 10
72 °FClear.13 mph14%30.01 "Hg10 mi
11:00 PM
Tue, Feb 9
73 °FClear.12 mph14%30.01 "Hg10 mi
10:00 PM75 °FClear.8 mph13%29.98 "Hg10 mi
9:00 PM77 °FClear.12 mph18%29.95 "Hg10 mi
8:00 PM81 °FClear.8 mph17%29.95 "Hg10 mi
7:00 PM84 °FClear.9 mph16%29.92 "Hg10 mi
6:00 PM86 °FSunny.12 mph15%29.92 "Hg10 mi
5:00 PM86 °FSunny.8 mph18%29.92 "Hg10 mi
4:00 PM86 °FSunny.6 mph18%29.92 "Hg10 mi
3:00 PM86 °FSunny.6 mph18%29.92 "Hg10 mi
2:00 PM84 °FSunny.10 mph19%29.95 "Hg10 mi
1:00 PM81 °FSunny.12 mph17%29.98 "Hg10 mi
12:00 PM77 °FSunny.13 mph18%30.01 "Hg10 mi
11:00 AM73 °FSunny.18 mph16%30.04 "Hg10 mi
10:00 AM68 °FSunny.16 mph20%30.04 "Hg10 mi
9:00 AM63 °FSunny.14 mph22%30.01 "Hg10 mi
8:00 AM61 °FSunny.14 mph22%30.01 "Hg10 mi
7:00 AM59 °FClear.8 mph21%30.01 "Hg10 mi
6:00 AM61 °FClear.10 mph17%29.98 "Hg10 mi
5:00 AM61 °FClear.10 mph17%29.98 "Hg10 mi
4:00 AM63 °FClear.10 mph17%29.98 "Hg10 mi
3:00 AM64 °FClear.14 mph15%30.01 "Hg10 mi
2:00 AM66 °FClear.17 mph18%30.04 "Hg10 mi
Weather by CustomWeather, © 2016

See weather overviewHow to use our weather pages